RAM424 GMAD-GMMN

Flight info

Callsign RAM424
Flight time 0h 44m
Altitude 28000
Route MOGBA UH400 MAK UR722 FOBAC
Aircraft B38M/M-SDE1FGHILORVWXY/HB1

Departure

Time 2026-04-21 04:05
Airport Al Massira Airport (GMAD)

Arrival

Time 2026-04-21 04:49
Airport Mohammed V International Airport (GMMN)
Time Latitude Longitude Altitude Speed Heading
2026-04-21 03:46 30.32874 -9.40891 237 ft 0 kts
2026-04-21 03:56 30.32853 -9.40892 237 ft 4 kts
2026-04-21 03:56 30.32828 -9.40893 238 ft 4 kts 10°
2026-04-21 03:57 30.32809 -9.40906 235 ft 4 kts 69°
2026-04-21 03:57 30.32806 -9.40932 236 ft 2 kts 91°
2026-04-21 03:57 30.32806 -9.40938 236 ft 0 kts 91°
2026-04-21 04:00 30.32806 -9.40922 236 ft 6 kts 92°
2026-04-21 04:01 30.32804 -9.40838 236 ft 13 kts 91°
2026-04-21 04:01 30.32799 -9.40723 234 ft 16 kts 104°
2026-04-21 04:01 30.32706 -9.40666 234 ft 18 kts 180°
2026-04-21 04:01 30.32575 -9.40669 238 ft 20 kts 181°
2026-04-21 04:02 30.32468 -9.40658 234 ft 16 kts 152°
2026-04-21 04:02 30.32436 -9.40537 234 ft 18 kts 92°
2026-04-21 04:02 30.32432 -9.40383 236 ft 20 kts 91°
2026-04-21 04:02 30.32428 -9.40208 234 ft 23 kts 92°
2026-04-21 04:03 30.32423 -9.40014 234 ft 25 kts 91°
2026-04-21 04:03 30.32415 -9.39818 237 ft 19 kts 98°
2026-04-21 04:03 30.32415 -9.39664 237 ft 20 kts 90°
2026-04-21 04:03 30.32386 -9.39509 233 ft 21 kts 146°
2026-04-21 04:04 30.32243 -9.39522 236 ft 13 kts 209°
2026-04-21 04:04 30.32226 -9.39595 233 ft 7 kts 271°
2026-04-21 04:04 30.32229 -9.39745 237 ft 52 kts 270°
2026-04-21 04:04 30.32243 -9.40493 237 ft 131 kts 272°
2026-04-21 04:05 30.32268 -9.41776 393 ft 180 kts 271°
2026-04-21 04:05 30.32401 -9.43295 1106 ft 194 kts 277°
2026-04-21 04:05 30.32554 -9.44857 2061 ft 200 kts 278°
2026-04-21 04:05 30.32760 -9.46534 2787 ft 220 kts 275°
2026-04-21 04:06 30.33007 -9.48323 3638 ft 232 kts 277°
2026-04-21 04:06 30.33323 -9.50176 4505 ft 241 kts 277°
2026-04-21 04:06 30.33543 -9.51478 4961 ft 256 kts 275°
2026-04-21 04:06 30.33862 -9.53587 5764 ft 273 kts 275°
2026-04-21 04:07 30.34195 -9.55754 6937 ft 272 kts 277°
2026-04-21 04:07 30.34775 -9.57831 8281 ft 266 kts 282°
2026-04-21 04:07 30.35290 -9.59855 9622 ft 261 kts 277°
2026-04-21 04:07 30.35710 -9.61881 10757 ft 257 kts 275°
2026-04-21 04:08 30.36108 -9.63919 11736 ft 261 kts 275°
2026-04-21 04:08 30.36542 -9.65970 12791 ft 262 kts 276°
2026-04-21 04:08 30.37185 -9.68668 14170 ft 261 kts 277°
2026-04-21 04:08 30.37485 -9.70064 14637 ft 269 kts 276°
2026-04-21 04:09 30.38150 -9.72191 15120 ft 296 kts 294°
2026-04-21 04:09 30.39621 -9.74066 15356 ft 338 kts 320°
2026-04-21 04:09 30.41886 -9.75101 15981 ft 359 kts 342°
2026-04-21 04:09 30.44389 -9.75386 16933 ft 365 kts 355°
2026-04-21 04:10 30.46928 -9.75282 17936 ft 365 kts 359°
2026-04-21 04:10 30.49468 -9.75103 18694 ft 368 kts 357°
2026-04-21 04:10 30.52023 -9.75126 19416 ft 368 kts 354°
2026-04-21 04:10 30.54617 -9.74918 19939 ft 383 kts
2026-04-21 04:11 30.57140 -9.73707 20222 ft 405 kts 33°
2026-04-21 04:11 30.59189 -9.71413 20611 ft 417 kts 54°
2026-04-21 04:11 30.60877 -9.68646 21144 ft 423 kts 55°
2026-04-21 04:11 30.62612 -9.65870 21782 ft 427 kts 55°
2026-04-21 04:12 30.64343 -9.63110 22398 ft 431 kts 54°
2026-04-21 04:12 30.66117 -9.60285 23023 ft 435 kts 54°
2026-04-21 04:12 30.67907 -9.57434 23576 ft 439 kts 55°
2026-04-21 04:12 30.69715 -9.54555 24081 ft 442 kts 54°
2026-04-21 04:13 30.71533 -9.51655 24586 ft 446 kts 54°
2026-04-21 04:13 30.73398 -9.48752 25075 ft 450 kts 53°
2026-04-21 04:13 30.75301 -9.45853 25564 ft 453 kts 53°
2026-04-21 04:13 30.77208 -9.42930 26063 ft 455 kts 53°
2026-04-21 04:14 30.79129 -9.39981 26534 ft 459 kts 53°
2026-04-21 04:14 30.81061 -9.37012 27002 ft 462 kts 53°
2026-04-21 04:14 30.83004 -9.34025 27484 ft 465 kts 53°
2026-04-21 04:14 30.84964 -9.31008 27806 ft 470 kts 53°
2026-04-21 04:15 30.86955 -9.27941 27851 ft 481 kts 53°
2026-04-21 04:15 30.88984 -9.24812 27822 ft 487 kts 53°
2026-04-21 04:15 30.91031 -9.21655 27840 ft 489 kts 53°
2026-04-21 04:15 30.93082 -9.18489 27850 ft 490 kts 53°
2026-04-21 04:16 30.95134 -9.15318 27842 ft 490 kts 53°
2026-04-21 04:16 30.97187 -9.12142 27841 ft 490 kts 53°
2026-04-21 04:16 30.99237 -9.08969 27832 ft 490 kts 53°
2026-04-21 04:16 31.01284 -9.05794 27838 ft 490 kts 53°
2026-04-21 04:17 31.03314 -9.02598 27856 ft 490 kts 53°
2026-04-21 04:17 31.05340 -8.99409 27853 ft 490 kts 53°
2026-04-21 04:17 31.07368 -8.96217 27832 ft 490 kts 53°
2026-04-21 04:17 31.09396 -8.93025 27880 ft 490 kts 53°
2026-04-21 04:18 31.11421 -8.89832 27844 ft 489 kts 53°
2026-04-21 04:18 31.13449 -8.86633 27822 ft 490 kts 53°
2026-04-21 04:18 31.15475 -8.83435 27877 ft 490 kts 53°
2026-04-21 04:18 31.17501 -8.80234 27827 ft 490 kts 53°
2026-04-21 04:19 31.19495 -8.77081 27874 ft 490 kts 53°
2026-04-21 04:19 31.21514 -8.73887 27857 ft 490 kts 54°
2026-04-21 04:19 31.23535 -8.70684 27852 ft 489 kts 54°
2026-04-21 04:19 31.25550 -8.67490 27831 ft 488 kts 54°
2026-04-21 04:20 31.27561 -8.64300 27837 ft 487 kts 54°
2026-04-21 04:20 31.29571 -8.61110 27839 ft 487 kts 54°
2026-04-21 04:20 31.31578 -8.57918 27840 ft 487 kts 54°
2026-04-21 04:20 31.33583 -8.54721 27843 ft 487 kts 54°
2026-04-21 04:21 31.35587 -8.51523 27817 ft 487 kts 54°
2026-04-21 04:21 31.37589 -8.48327 27840 ft 487 kts 54°
2026-04-21 04:21 31.39593 -8.45124 27823 ft 487 kts 54°
2026-04-21 04:21 31.41593 -8.41926 27825 ft 487 kts 54°
2026-04-21 04:22 31.43595 -8.38721 27823 ft 487 kts 54°
2026-04-21 04:22 31.45594 -8.35518 27820 ft 487 kts 54°
2026-04-21 04:22 31.47593 -8.32313 27815 ft 487 kts 54°
2026-04-21 04:22 31.49591 -8.29108 27812 ft 487 kts 54°
2026-04-21 04:23 31.51586 -8.25903 27811 ft 487 kts 54°
2026-04-21 04:23 31.53581 -8.22696 27821 ft 487 kts 54°
2026-04-21 04:23 31.55578 -8.19485 27811 ft 487 kts 54°
2026-04-21 04:23 31.57754 -8.16457 27790 ft 486 kts 42°
2026-04-21 04:24 31.60465 -8.14124 27804 ft 483 kts 26°
2026-04-21 04:24 31.63553 -8.12644 27807 ft 478 kts 12°
2026-04-21 04:24 31.66802 -8.11978 27798 ft 471 kts 358°
2026-04-21 04:24 31.70059 -8.12096 27822 ft 470 kts 355°
2026-04-21 04:25 31.73335 -8.12084 27817 ft 471 kts 356°
2026-04-21 04:25 31.76612 -8.12036 27809 ft 471 kts 357°
2026-04-21 04:25 31.79893 -8.11973 27812 ft 471 kts 357°
2026-04-21 04:25 31.83176 -8.11906 27812 ft 472 kts 357°
2026-04-21 04:26 31.86460 -8.11838 27811 ft 473 kts 357°
2026-04-21 04:26 31.89751 -8.11769 27804 ft 473 kts 357°
2026-04-21 04:26 31.93039 -8.11699 27806 ft 473 kts 357°
2026-04-21 04:26 31.96331 -8.11630 27803 ft 473 kts 357°
2026-04-21 04:27 31.99621 -8.11561 27806 ft 473 kts 357°
2026-04-21 04:27 32.02911 -8.11492 27807 ft 473 kts 357°
2026-04-21 04:27 32.06202 -8.11422 27809 ft 473 kts 357°
2026-04-21 04:27 32.09492 -8.11353 27820 ft 473 kts 356°
2026-04-21 04:28 32.12762 -8.11285 27537 ft 465 kts 356°
2026-04-21 04:28 32.15988 -8.11216 26932 ft 462 kts 357°
2026-04-21 04:28 32.19190 -8.11149 26390 ft 458 kts 357°
2026-04-21 04:28 32.22321 -8.11083 25811 ft 455 kts 357°
2026-04-21 04:29 32.25470 -8.11016 25247 ft 451 kts 357°
2026-04-21 04:29 32.28601 -8.10950 24696 ft 449 kts 357°
2026-04-21 04:29 32.31716 -8.10884 24131 ft 446 kts 357°
2026-04-21 04:29 32.34812 -8.10818 23581 ft 444 kts 357°
2026-04-21 04:30 32.37898 -8.10753 22965 ft 442 kts 357°
2026-04-21 04:30 32.40964 -8.10688 22374 ft 439 kts 357°
2026-04-21 04:30 32.44008 -8.10623 21833 ft 435 kts 358°
2026-04-21 04:30 32.47016 -8.10559 21303 ft 431 kts 358°
2026-04-21 04:31 32.50005 -8.10495 20782 ft 427 kts 358°
2026-04-21 04:31 32.52966 -8.10432 20260 ft 424 kts 358°
2026-04-21 04:31 32.55911 -8.10370 19747 ft 422 kts 358°
2026-04-21 04:31 32.58836 -8.10308 19232 ft 420 kts 358°
2026-04-21 04:32 32.61746 -8.10245 18730 ft 417 kts 358°
2026-04-21 04:32 32.64646 -8.10183 18231 ft 416 kts 358°
2026-04-21 04:32 32.67532 -8.10122 17680 ft 414 kts 358°
2026-04-21 04:32 32.70404 -8.10060 17157 ft 411 kts 358°
2026-04-21 04:33 32.73246 -8.09772 16568 ft 412 kts
2026-04-21 04:33 32.76066 -8.09263 16136 ft 407 kts
2026-04-21 04:33 32.78855 -8.08798 15689 ft 403 kts
2026-04-21 04:33 32.81622 -8.08354 15235 ft 400 kts
2026-04-21 04:34 32.84369 -8.07922 14788 ft 397 kts
2026-04-21 04:34 32.87100 -8.07497 14339 ft 395 kts
2026-04-21 04:34 32.89817 -8.07074 13912 ft 392 kts
2026-04-21 04:34 32.92520 -8.06745 13433 ft 388 kts 356°
2026-04-21 04:35 32.95154 -8.07250 12872 ft 382 kts 340°
2026-04-21 04:35 32.97698 -8.08117 12443 ft 378 kts 340°
2026-04-21 04:35 33.00203 -8.08985 12058 ft 373 kts 339°
2026-04-21 04:35 33.02678 -8.09859 11635 ft 369 kts 339°
2026-04-21 04:36 33.05129 -8.10735 11223 ft 366 kts 339°
2026-04-21 04:36 33.07555 -8.11603 10928 ft 360 kts 339°
2026-04-21 04:36 33.09918 -8.12447 10774 ft 349 kts 339°
2026-04-21 04:36 33.12205 -8.13266 10630 ft 339 kts 339°
2026-04-21 04:37 33.14402 -8.14053 10481 ft 329 kts 339°
2026-04-21 04:37 33.16560 -8.14826 10346 ft 319 kts 339°
2026-04-21 04:37 33.18660 -8.15579 10208 ft 310 kts 338°
2026-04-21 04:37 33.20697 -8.16310 10070 ft 302 kts 338°
2026-04-21 04:38 33.22678 -8.17021 9934 ft 293 kts 338°
2026-04-21 04:38 33.24608 -8.17707 9760 ft 287 kts 340°
2026-04-21 04:38 33.26628 -8.17890 9438 ft 300 kts
2026-04-21 04:38 33.28603 -8.17042 9105 ft 306 kts 33°
2026-04-21 04:39 33.30131 -8.15295 8822 ft 305 kts 58°
2026-04-21 04:39 33.31151 -8.13082 8561 ft 303 kts 65°
2026-04-21 04:39 33.32111 -8.10837 8264 ft 304 kts 66°
2026-04-21 04:39 33.33064 -8.08582 7973 ft 302 kts 66°
2026-04-21 04:40 33.34002 -8.06344 7686 ft 300 kts 66°
2026-04-21 04:40 33.34931 -8.04117 7395 ft 298 kts 66°
2026-04-21 04:40 33.35854 -8.01905 7107 ft 296 kts 66°
2026-04-21 04:40 33.36768 -7.99707 6818 ft 294 kts 66°
2026-04-21 04:41 33.37677 -7.97520 6525 ft 292 kts 66°
2026-04-21 04:41 33.38579 -7.95350 6242 ft 290 kts 66°
2026-04-21 04:41 33.39475 -7.93192 5962 ft 288 kts 66°
2026-04-21 04:41 33.40363 -7.91051 5664 ft 287 kts 66°
2026-04-21 04:42 33.41246 -7.88921 5375 ft 285 kts 66°
2026-04-21 04:42 33.42124 -7.86811 5087 ft 282 kts 64°
2026-04-21 04:42 33.43289 -7.84922 4790 ft 283 kts 47°
2026-04-21 04:42 33.44681 -7.83264 4549 ft 280 kts 48°
2026-04-21 04:43 33.45972 -7.81565 4388 ft 271 kts 53°
2026-04-21 04:43 33.47117 -7.79820 4276 ft 262 kts 57°
2026-04-21 04:43 33.48138 -7.78058 4144 ft 253 kts 60°
2026-04-21 04:43 33.49051 -7.76301 4026 ft 244 kts 63°
2026-04-21 04:44 33.49858 -7.74588 4000 ft 230 kts 65°
2026-04-21 04:44 33.50569 -7.72926 3912 ft 219 kts 68°
2026-04-21 04:44 33.51195 -7.71300 3791 ft 214 kts 70°
2026-04-21 04:44 33.51767 -7.69656 3612 ft 213 kts 72°
2026-04-21 04:45 33.52085 -7.67967 3361 ft 206 kts 98°
2026-04-21 04:45 33.51642 -7.66408 3127 ft 194 kts 123°
2026-04-21 04:45 33.50961 -7.65048 2895 ft 187 kts 130°
2026-04-21 04:45 33.49963 -7.64136 2633 ft 179 kts 157°
2026-04-21 04:46 33.48856 -7.63621 2428 ft 162 kts 161°
2026-04-21 04:46 33.47836 -7.63145 2260 ft 156 kts 158°
2026-04-21 04:46 33.46861 -7.62700 2230 ft 146 kts 164°
2026-04-21 04:46 33.45893 -7.62350 2076 ft 143 kts 166°
2026-04-21 04:47 33.44927 -7.62025 1980 ft 146 kts 163°
2026-04-21 04:47 33.43947 -7.61683 1805 ft 149 kts 162°
2026-04-21 04:47 33.42879 -7.61312 1613 ft 168 kts 163°
2026-04-21 04:47 33.41734 -7.60917 1441 ft 169 kts 163°
2026-04-21 04:48 33.40638 -7.60555 1196 ft 158 kts 165°
2026-04-21 04:48 33.39581 -7.60238 961 ft 155 kts 158°
2026-04-21 04:48 33.38560 -7.59853 756 ft 153 kts 159°
2026-04-21 04:48 33.37601 -7.59495 656 ft 131 kts 159°
2026-04-21 04:49 33.36951 -7.59278 654 ft 68 kts 164°
2026-04-21 04:49 33.36578 -7.59152 652 ft 17 kts 165°
2026-04-21 04:49 33.36496 -7.59102 654 ft 8 kts 99°
2026-04-21 04:49 33.36517 -7.59073 654 ft 5 kts
2026-04-21 04:50 33.36565 -7.59061 654 ft 11 kts 13°
2026-04-21 04:50 33.36684 -7.59026 657 ft 25 kts 14°
2026-04-21 04:50 33.36778 -7.58955 655 ft 12 kts 82°
2026-04-21 04:50 33.36815 -7.58790 656 ft 28 kts 74°
2026-04-21 04:51 33.36869 -7.58563 658 ft 20 kts 74°
2026-04-21 04:51 33.36909 -7.58392 655 ft 23 kts 75°
2026-04-21 04:51 33.36965 -7.58234 656 ft 20 kts 25°
2026-04-21 04:51 33.37076 -7.58263 655 ft 10 kts 346°
2026-04-21 04:52 33.37102 -7.58313 659 ft 6 kts 276°
2026-04-21 04:52 33.37113 -7.58353 658 ft 5 kts 262°
2026-04-21 04:52 33.37109 -7.58359 658 ft 0 kts 230°
2026-04-21 04:53 33.37108 -7.58359 655 ft 0 kts 220°
2026-04-21 04:53 33.37105 -7.58359 655 ft 1 kts 180°
2026-04-21 04:54 33.37096 -7.58346 657 ft 1 kts 127°
2026-04-21 04:54 33.37089 -7.58336 658 ft 1 kts 119°
2026-04-21 04:54 33.37088 -7.58334 658 ft 1 kts 120°
2026-04-21 04:54 33.37081 -7.58320 657 ft 2 kts 120°
2026-04-21 04:55 33.37080 -7.58317 657 ft 0 kts 120°